• In Portugal
  • List of Countries
  • For 7 days
  • Water Temperature
  • Satellite Maps
  • Weather Map
  • Weather Widgets
  • user-avatar
    Login

    Hourly Weather Igls

    Today, 14 August, Tuesday

    Time Temperature Precipitation Wind Pressure Humidity
    00:00 +18°C° 1.8 mm 1 mps 683 mmHg 96%
    01:00 +16°C° 0 mm 2 mps 683 mmHg 96%
    02:00 +16°C° 0.4 mm 2 mps 683 mmHg 96%
    03:00 +15°C° 0.4 mm 2 mps 683 mmHg 96%
    04:00 +15°C° 0.4 mm 2 mps 683 mmHg 96%
    05:00 +15°C° 0.2 mm 1 mps 683 mmHg 95%
    06:00 +16°C° 0.2 mm 1 mps 683 mmHg 94%
    07:00 +16°C° 0.2 mm 1 mps 684 mmHg 93%
    08:00 +18°C° 0.4 mm 1 mps 684 mmHg 88%
    09:00 +19°C° 0.4 mm 1 mps 684 mmHg 83%
    10:00 +20°C° 0.4 mm 1 mps 685 mmHg 79%
    11:00 +21°C° 0.4 mm 1 mps 685 mmHg 76%
    12:00 +21°C° 0.4 mm 2 mps 685 mmHg 73%
    13:00 +21°C° 0.4 mm 2 mps 685 mmHg 70%
    14:00 +21°C° 0.7 mm 2 mps 685 mmHg 73%
    15:00 +20°C° 0.7 mm 2 mps 685 mmHg 77%
    16:00 +20°C° 0.7 mm 2 mps 685 mmHg 80%
    17:00 +19°C° 0.6 mm 2 mps 685 mmHg 85%
    18:00 +18°C° 0.6 mm 2 mps 685 mmHg 89%
    19:00 +17°C° 0.6 mm 2 mps 685 mmHg 94%
    20:00 +16°C° 0.1 mm 2 mps 686 mmHg 94%
    21:00 +15°C° 0.1 mm 2 mps 686 mmHg 95%
    22:00 +15°C° 0.1 mm 2 mps 686 mmHg 96%
    23:00 +14°C° 0 mm 2 mps 686 mmHg 96%

    Tomorrow, 15 August, Wednesday

    Time Temperature Precipitation Wind Pressure Humidity
    00:00 +14°C° 0 mm 2 mps 686 mmHg 96%
    01:00 +13°C° 0 mm 2 mps 687 mmHg 96%
    02:00 +13°C° 0 mm 2 mps 686 mmHg 96%
    03:00 +13°C° 0 mm 2 mps 686 mmHg 96%
    04:00 +12°C° 0 mm 1 mps 686 mmHg 95%
    05:00 +13°C° 0 mm 1 mps 687 mmHg 94%
    06:00 +14°C° 0 mm 1 mps 687 mmHg 92%
    07:00 +15°C° 0 mm 1 mps 687 mmHg 91%
    08:00 +18°C° 0 mm 1 mps 688 mmHg 80%
    09:00 +20°C° 0 mm 1 mps 688 mmHg 70%
    10:00 +23°C° 0 mm 1 mps 689 mmHg 60%
    11:00 +24°C° 0 mm 2 mps 689 mmHg 57%
    12:00 +24°C° 0 mm 2 mps 689 mmHg 54%
    13:00 +25°C° 0 mm 2 mps 688 mmHg 51%
    14:00 +25°C° 0 mm 2 mps 688 mmHg 53%
    15:00 +25°C° 0 mm 2 mps 688 mmHg 54%
    16:00 +25°C° 0 mm 2 mps 688 mmHg 56%
    17:00 +23°C° 0.1 mm 2 mps 688 mmHg 66%
    18:00 +20°C° 0.1 mm 2 mps 688 mmHg 76%
    19:00 +20°C° 0.1 mm 1 mps 688 mmHg 85%
    20:00 +19°C° 0 mm 1 mps 688 mmHg 89%
    21:00 +16°C° 0 mm 1 mps 688 mmHg 92%
    22:00 +15°C° 0 mm 1 mps 688 mmHg 96%
    23:00 +15°C° 0 mm 1 mps 688 mmHg 95%

    Day after tomorrow, 16 August, Thursday

    Time Temperature Precipitation Wind Pressure Humidity
    00:00 +14°C° 0 mm 1 mps 688 mmHg 95%
    01:00 +14°C° 0 mm 1 mps 687 mmHg 95%
    02:00 +14°C° 0 mm 1 mps 687 mmHg 95%
    03:00 +13°C° 0 mm 1 mps 687 mmHg 94%
    04:00 +13°C° 0 mm 1 mps 687 mmHg 94%
    05:00 +15°C° 0 mm 1 mps 687 mmHg 90%
    06:00 +16°C° 0 mm 1 mps 687 mmHg 86%
    07:00 +19°C° 0 mm 1 mps 688 mmHg 82%
    08:00 +21°C° 0 mm 1 mps 688 mmHg 72%
    09:00 +23°C° 0 mm 1 mps 688 mmHg 61%
    10:00 +25°C° 0 mm 1 mps 688 mmHg 50%
    11:00 +26°C° 0 mm 1 mps 688 mmHg 48%
    12:00 +27°C° 0 mm 1 mps 688 mmHg 45%
    13:00 +28°C° 0 mm 1 mps 688 mmHg 43%
    14:00 +27°C° 0 mm 1 mps 687 mmHg 46%
    15:00 +27°C° 0 mm 1 mps 687 mmHg 49%
    16:00 +26°C° 0 mm 1 mps 687 mmHg 52%
    17:00 +25°C° 0 mm 1 mps 686 mmHg 63%
    18:00 +23°C° 0 mm 1 mps 686 mmHg 73%
    19:00 +21°C° 0 mm 1 mps 686 mmHg 83%
    20:00 +20°C° 0.1 mm 1 mps 686 mmHg 86%
    21:00 +19°C° 0.1 mm 1 mps 686 mmHg 89%
    22:00 +18°C° 0.1 mm 1 mps 686 mmHg 92%
    23:00 +16°C° 0 mm 1 mps 686 mmHg 92%

    17 August, Friday

    Time Temperature Precipitation Wind Pressure Humidity
    00:00 +16°C° 0 mm 1 mps 686 mmHg 91%
    01:00 +16°C° 0 mm 1 mps 686 mmHg 91%
    02:00 +15°C° 0 mm 1 mps 685 mmHg 91%
    03:00 +15°C° 0 mm 1 mps 685 mmHg 91%
    04:00 +15°C° 0 mm 1 mps 685 mmHg 92%
    05:00 +16°C° 0.1 mm 1 mps 685 mmHg 89%
    06:00 +18°C° 0.1 mm 1 mps 686 mmHg 86%
    07:00 +20°C° 0.1 mm 1 mps 686 mmHg 84%
    08:00 +22°C° 0.1 mm 1 mps 686 mmHg 75%
    09:00 +24°C° 0.1 mm 1 mps 687 mmHg 67%
    10:00 +26°C° 0.1 mm 1 mps 687 mmHg 59%
    11:00 +26°C° 1.1 mm 1 mps 687 mmHg 61%
    12:00 +26°C° 1.1 mm 1 mps 686 mmHg 64%
    13:00 +25°C° 1.1 mm 2 mps 686 mmHg 67%
    14:00 +24°C° 1.9 mm 2 mps 686 mmHg 73%
    15:00 +23°C° 1.9 mm 2 mps 686 mmHg 79%
    16:00 +21°C° 1.9 mm 2 mps 686 mmHg 86%
    17:00 +20°C° 2.3 mm 2 mps 686 mmHg 89%
    18:00 +19°C° 2.3 mm 2 mps 686 mmHg 92%
    19:00 +18°C° 2.3 mm 2 mps 687 mmHg 96%
    20:00 +17°C° 1.9 mm 2 mps 687 mmHg 96%
    21:00 +17°C° 1.9 mm 2 mps 687 mmHg 97%
    22:00 +17°C° 1.9 mm 2 mps 688 mmHg 97%
    23:00 +16°C° 0.8 mm 1 mps 688 mmHg 97%

    18 August, Saturday

    Time Temperature Precipitation Wind Pressure Humidity
    00:00 +16°C° 0.8 mm 1 mps 688 mmHg 97%
    01:00 +16°C° 0.8 mm 1 mps 688 mmHg 97%
    02:00 +16°C° 0.4 mm 1 mps 688 mmHg 97%
    03:00 +16°C° 0.4 mm 1 mps 688 mmHg 97%
    04:00 +16°C° 0.4 mm 1 mps 688 mmHg 97%
    05:00 +16°C° 0.7 mm 1 mps 688 mmHg 97%
    06:00 +16°C° 0.7 mm 1 mps 688 mmHg 96%
    07:00 +16°C° 0.7 mm 1 mps 689 mmHg 96%
    08:00 +18°C° 0.7 mm 1 mps 689 mmHg 94%
    09:00 +18°C° 0.7 mm 1 mps 689 mmHg 91%
    10:00 +19°C° 0.7 mm 1 mps 689 mmHg 89%
    11:00 +20°C° 0.3 mm 1 mps 689 mmHg 85%
    12:00 +21°C° 0.3 mm 1 mps 689 mmHg 80%
    13:00 +22°C° 0.3 mm 1 mps 689 mmHg 76%
    14:00 +22°C° 0.4 mm 1 mps 689 mmHg 76%
    15:00 +21°C° 0.4 mm 2 mps 689 mmHg 76%
    16:00 +21°C° 0.4 mm 2 mps 689 mmHg 75%
    17:00 +20°C° 0.4 mm 2 mps 689 mmHg 81%
    18:00 +20°C° 0.4 mm 1 mps 689 mmHg 87%
    19:00 +19°C° 0.4 mm 1 mps 689 mmHg 93%
    20:00 +18°C° 0.1 mm 1 mps 689 mmHg 94%
    21:00 +18°C° 0.1 mm 1 mps 689 mmHg 95%
    22:00 +16°C° 0.1 mm 1 mps 690 mmHg 96%
    23:00 +16°C° 0 mm 1 mps 690 mmHg 96%

    19 August, Sunday

    Time Temperature Precipitation Wind Pressure Humidity
    00:00 +16°C° 0 mm 1 mps 690 mmHg 96%
    01:00 +15°C° 0 mm 1 mps 690 mmHg 97%
    02:00 +15°C° 0 mm 1 mps 689 mmHg 97%
    03:00 +15°C° 0 mm 1 mps 689 mmHg 97%
    04:00 +14°C° 0 mm 1 mps 689 mmHg 97%
    05:00 +15°C° 0 mm 1 mps 689 mmHg 95%
    06:00 +16°C° 0 mm 1 mps 690 mmHg 93%
    07:00 +18°C° 0 mm 1 mps 690 mmHg 91%
    08:00 +20°C° 0 mm 1 mps 690 mmHg 82%
    09:00 +21°C° 0 mm 1 mps 690 mmHg 73%
    10:00 +23°C° 0 mm 1 mps 691 mmHg 64%
    11:00 +24°C° 0 mm 1 mps 691 mmHg 61%
    12:00 +25°C° 0 mm 2 mps 691 mmHg 58%
    13:00 +25°C° 0 mm 2 mps 690 mmHg 55%
    14:00 +25°C° 0.1 mm 2 mps 690 mmHg 55%
    15:00 +25°C° 0.1 mm 2 mps 690 mmHg 56%
    16:00 +25°C° 0.1 mm 2 mps 690 mmHg 57%
    17:00 +23°C° 0 mm 2 mps 690 mmHg 66%
    18:00 +21°C° 0 mm 2 mps 690 mmHg 75%
    19:00 +20°C° 0 mm 1 mps 689 mmHg 84%
    20:00 +19°C° 0 mm 1 mps 689 mmHg 87%
    21:00 +16°C° 0 mm 1 mps 690 mmHg 91%
    22:00 +15°C° 0 mm 1 mps 690 mmHg 94%
    23:00 +15°C° 0 mm 1 mps 689 mmHg 94%
    Show more